VOZ947 YSSY-YBBN

Flight info

Callsign VOZ947
Flight time N/A
Altitude 37000
Route OLSEM Y193 BANDA H252 GOMOL
Aircraft B38M/M-SDE1FGHILORVWXY/HB1

Departure

Time 2026-05-06 08:18
Airport Sydney Kingsford Smith International Airport (YSSY)

Arrival

Time N/A
Airport Brisbane International Airport (YBBN)
Time Latitude Longitude Altitude Speed Heading
2026-05-06 07:53 -33.93576 151.17899 33 ft 0 kts 102°
2026-05-06 08:07 -33.93576 151.17897 33 ft 1 kts 102°
2026-05-06 08:08 -33.93574 151.17887 33 ft 2 kts 102°
2026-05-06 08:08 -33.93570 151.17867 33 ft 2 kts 102°
2026-05-06 08:08 -33.93567 151.17849 33 ft 2 kts 103°
2026-05-06 08:08 -33.93557 151.17834 32 ft 2 kts 164°
2026-05-06 08:09 -33.93542 151.17835 32 ft 0 kts 190°
2026-05-06 08:11 -33.93549 151.17833 32 ft 5 kts 191°
2026-05-06 08:11 -33.93626 151.17816 32 ft 17 kts 191°
2026-05-06 08:12 -33.93746 151.17781 32 ft 17 kts 194°
2026-05-06 08:12 -33.93844 151.17764 32 ft 14 kts 175°
2026-05-06 08:12 -33.93952 151.17792 32 ft 17 kts 168°
2026-05-06 08:12 -33.94079 151.17827 31 ft 20 kts 167°
2026-05-06 08:13 -33.94214 151.17859 32 ft 20 kts 170°
2026-05-06 08:13 -33.94354 151.17896 32 ft 21 kts 169°
2026-05-06 08:13 -33.94477 151.17892 32 ft 18 kts 200°
2026-05-06 08:13 -33.94601 151.17901 32 ft 19 kts 167°
2026-05-06 08:14 -33.94732 151.17936 32 ft 20 kts 167°
2026-05-06 08:14 -33.94871 151.17972 32 ft 21 kts 168°
2026-05-06 08:14 -33.95023 151.18011 33 ft 22 kts 168°
2026-05-06 08:14 -33.95100 151.18070 33 ft 11 kts 102°
2026-05-06 08:15 -33.95088 151.18167 33 ft 13 kts 78°
2026-05-06 08:15 -33.95067 151.18287 33 ft 16 kts 77°
2026-05-06 08:15 -33.95042 151.18428 33 ft 18 kts 78°
2026-05-06 08:15 -33.95014 151.18587 32 ft 20 kts 78°
2026-05-06 08:16 -33.94992 151.18706 31 ft 8 kts 77°
2026-05-06 08:16 -33.94991 151.18711 31 ft 0 kts 77°
2026-05-06 08:16 -33.94987 151.18732 30 ft 8 kts 79°
2026-05-06 08:17 -33.94986 151.18824 27 ft 10 kts 130°
2026-05-06 08:17 -33.95064 151.18853 27 ft 16 kts 167°
2026-05-06 08:17 -33.95410 151.18943 26 ft 92 kts 168°
2026-05-06 08:17 -33.96263 151.19164 34 ft 159 kts 167°
2026-05-06 08:18 -33.97423 151.19433 559 ft 178 kts 165°
2026-05-06 08:18 -33.98570 151.20000 1416 ft 181 kts 148°
2026-05-06 08:18 -33.99615 151.20952 1975 ft 199 kts 134°
2026-05-06 08:18 -34.00398 151.22378 2537 ft 217 kts 112°
2026-05-06 08:19 -34.00955 151.24172 3114 ft 236 kts 112°
2026-05-06 08:19 -34.01956 151.25782 3818 ft 251 kts 143°
2026-05-06 08:19 -34.03405 151.27092 4465 ft 270 kts 143°
2026-05-06 08:19 -34.04897 151.28544 5306 ft 277 kts 143°
2026-05-06 08:20 -34.06375 151.29991 6315 ft 279 kts 143°
2026-05-06 08:20 -34.07897 151.31479 7191 ft 285 kts 143°
2026-05-06 08:20 -34.09450 151.33000 8075 ft 290 kts 143°
2026-05-06 08:20 -34.10830 151.34807 8874 ft 298 kts 120°
2026-05-06 08:21 -34.11455 151.37186 9739 ft 302 kts 93°
2026-05-06 08:21 -34.11176 151.39715 10391 ft 309 kts 68°
2026-05-06 08:21 -34.10052 151.41940 10941 ft 315 kts 46°
2026-05-06 08:21 -34.08558 151.43922 11582 ft 324 kts 45°
2026-05-06 08:22 -34.07014 151.45924 12297 ft 329 kts 39°
2026-05-06 08:22 -34.05032 151.47345 12699 ft 336 kts 15°
2026-05-06 08:22 -34.02775 151.48105 13183 ft 346 kts 12°
2026-05-06 08:22 -34.00453 151.48873 13962 ft 348 kts 12°
2026-05-06 08:23 -33.98099 151.49646 14566 ft 353 kts 12°
2026-05-06 08:23 -33.95710 151.50428 15198 ft 356 kts 12°
2026-05-06 08:23 -33.93304 151.51216 15815 ft 360 kts 12°
2026-05-06 08:23 -33.90875 151.52011 16418 ft 363 kts 12°
2026-05-06 08:24 -33.88422 151.52813 17021 ft 367 kts 12°
2026-05-06 08:24 -33.85981 151.53611 17585 ft 370 kts 12°
2026-05-06 08:24 -33.83483 151.54426 18157 ft 374 kts 12°
2026-05-06 08:24 -33.80953 151.55252 18664 ft 377 kts 12°
2026-05-06 08:25 -33.78413 151.56081 19160 ft 380 kts 12°
2026-05-06 08:25 -33.75848 151.56918 19650 ft 382 kts 12°
2026-05-06 08:25 -33.73270 151.57758 20139 ft 384 kts 12°
2026-05-06 08:25 -33.70678 151.58601 20627 ft 387 kts 12°
2026-05-06 08:26 -33.68070 151.59450 21118 ft 389 kts 12°
2026-05-06 08:26 -33.65499 151.60360 21603 ft 394 kts 20°
2026-05-06 08:26 -33.63099 151.61998 22142 ft 399 kts 30°
2026-05-06 08:26 -33.60741 151.63791 22568 ft 403 kts 29°
2026-05-06 08:27 -33.58366 151.65608 23057 ft 406 kts 30°
2026-05-06 08:27 -33.55981 151.67454 23554 ft 409 kts 30°
2026-05-06 08:27 -33.53581 151.69326 23973 ft 412 kts 30°
2026-05-06 08:27 -33.51179 151.71207 24393 ft 415 kts 29°
2026-05-06 08:28 -33.48630 151.72778 24752 ft 410 kts 13°
2026-05-06 08:28 -33.45885 151.73691 25182 ft 410 kts 11°
2026-05-06 08:28 -33.43118 151.74606 25558 ft 414 kts 11°
2026-05-06 08:28 -33.40334 151.75515 25985 ft 416 kts 10°
2026-05-06 08:29 -33.37527 151.76425 26389 ft 418 kts 10°
2026-05-06 08:29 -33.34748 151.77323 26775 ft 421 kts 10°
2026-05-06 08:29 -33.31909 151.78241 27159 ft 423 kts
2026-05-06 08:29 -33.29060 151.79161 27547 ft 425 kts
2026-05-06 08:30 -33.26195 151.80085 27929 ft 428 kts
2026-05-06 08:30 -33.23310 151.81016 28306 ft 430 kts
2026-05-06 08:30 -33.20416 151.81948 28669 ft 432 kts
2026-05-06 08:30 -33.17503 151.82887 29032 ft 435 kts
2026-05-06 08:31 -33.14571 151.83831 29391 ft 437 kts
2026-05-06 08:31 -33.12620 151.84458 29615 ft 439 kts
2026-05-06 08:31 -33.08703 151.85718 30043 ft 442 kts
2026-05-06 08:31 -33.06692 151.86363 30239 ft 443 kts
2026-05-06 08:32 -33.03739 151.87311 30535 ft 445 kts
2026-05-06 08:32 -33.00738 151.88274 30838 ft 447 kts
2026-05-06 08:32 -32.97732 151.89238 31135 ft 448 kts
2026-05-06 08:32 -32.94721 151.90203 31420 ft 450 kts
2026-05-06 08:33 -32.91693 151.91172 31706 ft 452 kts
2026-05-06 08:33 -32.88653 151.92145 31964 ft 453 kts
2026-05-06 08:33 -32.85602 151.93120 32267 ft 454 kts
2026-05-06 08:33 -32.82551 151.94095 32607 ft 454 kts
2026-05-06 08:34 -32.79492 151.95073 32994 ft 453 kts
2026-05-06 08:34 -32.73419 151.97009 33797 ft 450 kts
2026-05-06 08:34 -32.70429 151.97962 34172 ft 449 kts
2026-05-06 08:35 -32.67376 151.98933 34499 ft 448 kts
2026-05-06 08:35 -32.64400 151.99880 34804 ft 447 kts
2026-05-06 08:35 -32.61392 152.00836 35093 ft 447 kts
2026-05-06 08:35 -32.58383 152.01792 35390 ft 446 kts
2026-05-06 08:36 -32.55376 152.02746 35675 ft 446 kts
2026-05-06 08:36 -32.52385 152.03695 35954 ft 445 kts
2026-05-06 08:36 -32.49386 152.04646 36198 ft 445 kts
2026-05-06 08:36 -32.46402 152.05591 36459 ft 444 kts
2026-05-06 08:37 -32.43414 152.06537 36666 ft 444 kts
2026-05-06 08:37 -32.40461 152.07473 36878 ft 444 kts
2026-05-06 08:37 -32.37474 152.08416 37098 ft 444 kts
2026-05-06 08:38 -32.31446 152.10319 37074 ft 448 kts
2026-05-06 08:38 -32.25420 152.12221 37078 ft 448 kts
2026-05-06 08:39 -32.19389 152.14119 37085 ft 448 kts
2026-05-06 08:39 -32.13405 152.16002 37078 ft 447 kts
2026-05-06 08:40 -32.07378 152.17895 37082 ft 448 kts
2026-05-06 08:40 -32.01360 152.19783 37095 ft 447 kts
2026-05-06 08:41 -31.95344 152.21667 37083 ft 448 kts
2026-05-06 08:41 -31.89352 152.23541 37089 ft 448 kts
2026-05-06 08:42 -31.83330 152.25423 37091 ft 448 kts
2026-05-06 08:42 -31.77300 152.27305 37054 ft 448 kts
2026-05-06 08:43 -31.71277 152.29181 37095 ft 448 kts
2026-05-06 08:43 -31.65248 152.31057 37089 ft 448 kts
2026-05-06 08:44 -31.59269 152.32915 37107 ft 448 kts
2026-05-06 08:44 -31.53236 152.34788 37093 ft 447 kts
2026-05-06 08:45 -31.47234 152.36651 37091 ft 446 kts
2026-05-06 08:45 -31.41228 152.38506 37107 ft 447 kts
2026-05-06 08:46 -31.35215 152.40364 37090 ft 447 kts
2026-05-06 08:46 -31.29207 152.42219 37080 ft 447 kts
2026-05-06 08:47 -31.23216 152.44066 37098 ft 448 kts
2026-05-06 08:47 -31.17202 152.45915 37096 ft 447 kts
2026-05-06 08:48 -31.11174 152.47769 37100 ft 448 kts
2026-05-06 08:48 -31.05136 152.49625 37101 ft 448 kts
2026-05-06 08:49 -30.99131 152.51468 37104 ft 449 kts
2026-05-06 08:49 -30.93115 152.53309 37088 ft 448 kts
2026-05-06 08:50 -30.87082 152.55155 37086 ft 448 kts
2026-05-06 08:50 -30.81045 152.57003 37095 ft 450 kts
2026-05-06 08:51 -30.75082 152.59187 37111 ft 452 kts
2026-05-06 08:51 -30.69064 152.61370 37112 ft 453 kts
2026-05-06 08:52 -30.63049 152.63546 37079 ft 452 kts
2026-05-06 08:52 -30.57023 152.65710 37098 ft 454 kts
2026-05-06 08:53 -30.51030 152.67882 37090 ft 454 kts
2026-05-06 08:53 -30.45002 152.70051 37129 ft 454 kts
2026-05-06 08:54 -30.38973 152.72216 37095 ft 453 kts
2026-05-06 08:54 -30.32958 152.74374 37149 ft 452 kts
2026-05-06 08:55 -30.26927 152.76543 37101 ft 453 kts
2026-05-06 08:55 -30.20909 152.78698 37115 ft 454 kts
2026-05-06 08:56 -30.14912 152.80846 37090 ft 453 kts
2026-05-06 08:56 -30.08879 152.83000 37107 ft 454 kts
2026-05-06 08:57 -30.02841 152.85154 37116 ft 454 kts
2026-05-06 08:57 -29.96805 152.87307 37113 ft 454 kts
2026-05-06 08:58 -29.90764 152.89459 37089 ft 454 kts
2026-05-06 08:58 -29.84761 152.91598 37092 ft 454 kts
2026-05-06 08:59 -29.78743 152.93741 37095 ft 454 kts
2026-05-06 08:59 -29.72714 152.95885 37114 ft 453 kts
2026-05-06 09:00 -29.66719 152.98015 37076 ft 453 kts
2026-05-06 09:00 -29.60667 153.00161 37111 ft 454 kts
2026-05-06 09:01 -29.54628 153.02301 37112 ft 454 kts
2026-05-06 09:01 -29.48622 153.04426 37107 ft 454 kts
2026-05-06 09:02 -29.42580 153.06562 37090 ft 454 kts
2026-05-06 09:02 -29.36528 153.08698 37105 ft 454 kts
2026-05-06 09:03 -29.30496 153.10824 37111 ft 454 kts
2026-05-06 09:03 -29.24485 153.12942 37110 ft 454 kts
2026-05-06 09:04 -29.18443 153.15069 37087 ft 454 kts
2026-05-06 09:04 -29.12396 153.17193 37110 ft 454 kts
2026-05-06 09:05 -29.06359 153.19312 37113 ft 454 kts
2026-05-06 09:05 -29.00335 153.21426 36562 ft 450 kts
2026-05-06 09:05 -28.97370 153.22463 35795 ft 453 kts
2026-05-06 09:06 -28.94358 153.23517 35117 ft 452 kts
2026-05-06 09:06 -28.91353 153.24568 34601 ft 449 kts
2026-05-06 09:06 -28.88372 153.25611 34104 ft 445 kts
2026-05-06 09:06 -28.85425 153.26641 33485 ft 442 kts
2026-05-06 09:07 -28.82471 153.27671 32894 ft 446 kts
2026-05-06 09:07 -28.79490 153.28711 32367 ft 449 kts
2026-05-06 09:07 -28.76514 153.29750 31853 ft 447 kts
2026-05-06 09:07 -28.73551 153.30784 31331 ft 442 kts
2026-05-06 09:08 -28.70619 153.31805 30791 ft 439 kts
2026-05-06 09:08 -28.67709 153.32818 30275 ft 435 kts
2026-05-06 09:08 -28.64820 153.33823 29687 ft 432 kts
2026-05-06 09:08 -28.62000 153.34806 29194 ft 427 kts